Torna al catalogo

SL-12 R/B

AUX MOTOR

AttivoHEO
NORAD 14278·ROCKET BODY·🇷🇺 Russia

Lanciato Aug 10, 1983 da Baikonur Cosmodrome

Loading…

Prossimi Passaggi (prossime 24 ore)

TLE

AggiornatoSource: Space-Track

Epoca: Sep 14, 2026, 05:46 UTC

1 14278U 83084H   26257.24095842  .00005568  00000-0  11247-2 0  9992
2 14278  52.0954 357.8636 5249696 348.1366   3.1854  5.20098004739849

Traccia SL-12 R/B in tempo reale con AllMySat

Download on the App Store